Wetterdaten: Sonntag, 05.10.2014
Datum Zeit Temp. A. Feuchte A. Luftdruck Regen Wind Richtung Richtung Sonnenschein ET UV Solar Taupunkt Windchill Windben Empfang
05.10.2014 00:00 11,1 C 80 % 1015,9 hPa 0,0 l/m 0,0 km/h (0 Bft) SO 139 0 min 0,000 mm 0,0 UV-I 0 W/m 7,8 C 11,1 C 0,0 km/h (0 Bft) 0,00 %
05.10.2014 00:15 11,0 C 80 % 1015,9 hPa 0,0 l/m 0,0 km/h (0 Bft) O 79 0 min 0,000 mm 0,0 UV-I 0 W/m 7,7 C 11,0 C 0,0 km/h (0 Bft) 0,00 %
05.10.2014 00:30 11,0 C 80 % 1015,7 hPa 0,0 l/m 1,8 km/h (1 Bft) O 83 0 min 0,000 mm 0,0 UV-I 0 W/m 7,7 C 11,0 C 4,0 km/h (1 Bft) 0,00 %
05.10.2014 00:45 11,1 C 80 % 1015,6 hPa 0,0 l/m 0,4 km/h (0 Bft) O-SO 113 0 min 0,000 mm 0,0 UV-I 0 W/m 7,8 C 11,1 C 4,0 km/h (1 Bft) 0,00 %
05.10.2014 01:00 11,1 C 80 % 1015,6 hPa 0,0 l/m 0,0 km/h (0 Bft) S-SO 147 0 min 0,000 mm 0,0 UV-I 0 W/m 7,8 C 11,1 C 0,0 km/h (0 Bft) 0,00 %
05.10.2014 01:15 11,1 C 80 % 1015,7 hPa 0,0 l/m 0,0 km/h (0 Bft) NW 318 0 min 0,000 mm 0,0 UV-I 0 W/m 7,8 C 11,1 C 0,0 km/h (0 Bft) 0,00 %
05.10.2014 01:30 11,1 C 80 % 1015,5 hPa 0,0 l/m 3,2 km/h (1 Bft) SO 127 0 min 0,000 mm 0,0 UV-I 0 W/m 7,8 C 11,1 C 4,0 km/h (1 Bft) 0,00 %
05.10.2014 01:45 11,1 C 80 % 1015,6 hPa 0,0 l/m 0,0 km/h (0 Bft) S 174 0 min 0,000 mm 0,0 UV-I 0 W/m 7,8 C 11,1 C 0,0 km/h (0 Bft) 0,00 %
05.10.2014 02:00 11,1 C 80 % 1015,5 hPa 0,0 l/m 0,4 km/h (0 Bft) S-SW 213 0 min 0,000 mm 0,0 UV-I 0 W/m 7,8 C 11,1 C 4,0 km/h (1 Bft) 0,00 %
05.10.2014 02:15 11,0 C 80 % 1015,6 hPa 0,0 l/m 0,4 km/h (0 Bft) O-SO 105 0 min 0,000 mm 0,0 UV-I 0 W/m 7,7 C 11,0 C 4,0 km/h (1 Bft) 0,00 %
05.10.2014 02:30 10,9 C 80 % 1015,5 hPa 0,0 l/m 0,0 km/h (0 Bft) N 358 0 min 0,000 mm 0,0 UV-I 0 W/m 7,6 C 10,9 C 0,0 km/h (0 Bft) 0,00 %
05.10.2014 02:45 10,7 C 81 % 1015,4 hPa 0,0 l/m 0,0 km/h (0 Bft) SO 124 0 min 0,000 mm 0,0 UV-I 0 W/m 7,6 C 10,7 C 0,0 km/h (0 Bft) 0,00 %
05.10.2014 03:00 10,6 C 81 % 1015,5 hPa 0,0 l/m 0,0 km/h (0 Bft) SO 145 0 min 0,000 mm 0,0 UV-I 0 W/m 7,5 C 10,6 C 0,0 km/h (0 Bft) 0,00 %
05.10.2014 03:15 10,5 C 81 % 1015,6 hPa 0,0 l/m 0,0 km/h (0 Bft) N-NW 347 0 min 0,000 mm 0,0 UV-I 0 W/m 7,4 C 10,5 C 0,0 km/h (0 Bft) 0,00 %
05.10.2014 03:30 10,4 C 83 % 1015,5 hPa 0,0 l/m 0,0 km/h (0 Bft) W-SW 252 0 min 0,000 mm 0,0 UV-I 0 W/m 7,6 C 10,4 C 0,0 km/h (0 Bft) 0,00 %
05.10.2014 03:45 10,3 C 83 % 1015,5 hPa 0,0 l/m 0,0 km/h (0 Bft) O 82 0 min 0,000 mm 0,0 UV-I 0 W/m 7,5 C 10,3 C 0,0 km/h (0 Bft) 0,00 %
05.10.2014 04:00 10,2 C 83 % 1015,5 hPa 0,0 l/m 0,0 km/h (0 Bft) S 190 0 min 0,000 mm 0,0 UV-I 0 W/m 7,4 C 10,2 C 0,0 km/h (0 Bft) 0,00 %
05.10.2014 04:15 10,2 C 83 % 1015,5 hPa 0,0 l/m 0,0 km/h (0 Bft) O-NO 77 0 min 0,000 mm 0,0 UV-I 0 W/m 7,4 C 10,2 C 0,0 km/h (0 Bft) 0,00 %
05.10.2014 04:30 10,2 C 83 % 1015,7 hPa 0,0 l/m 0,0 km/h (0 Bft) N-NO 16 0 min 0,000 mm 0,0 UV-I 0 W/m 7,4 C 10,2 C 0,0 km/h (0 Bft) 0,00 %
05.10.2014 04:45 10,1 C 84 % 1015,7 hPa 0,0 l/m 0,0 km/h (0 Bft) S 181 0 min 0,000 mm 0,0 UV-I 0 W/m 7,5 C 10,1 C 0,0 km/h (0 Bft) 0,00 %
05.10.2014 05:00 10,1 C 84 % 1015,6 hPa 0,0 l/m 0,0 km/h (0 Bft) NW 304 0 min 0,000 mm 0,0 UV-I 0 W/m 7,5 C 10,1 C 0,0 km/h (0 Bft) 0,00 %
05.10.2014 05:15 10,0 C 84 % 1015,7 hPa 0,0 l/m 0,0 km/h (0 Bft) O-NO 71 0 min 0,000 mm 0,0 UV-I 0 W/m 7,4 C 10,0 C 0,0 km/h (0 Bft) 0,00 %
05.10.2014 05:30 10,0 C 84 % 1015,7 hPa 0,0 l/m 0,0 km/h (0 Bft) O-NO 69 0 min 0,000 mm 0,0 UV-I 0 W/m 7,4 C 10,0 C 0,0 km/h (0 Bft) 0,00 %
05.10.2014 05:45 9,9 C 85 % 1015,8 hPa 0,0 l/m 0,0 km/h (0 Bft) S-SW 206 0 min 0,000 mm 0,0 UV-I 0 W/m 7,5 C 9,9 C 0,0 km/h (0 Bft) 0,00 %
05.10.2014 06:00 9,8 C 84 % 1015,9 hPa 0,0 l/m 0,0 km/h (0 Bft) S 170 0 min 0,000 mm 0,0 UV-I 0 W/m 7,2 C 9,8 C 0,0 km/h (0 Bft) 0,00 %
05.10.2014 06:15 9,9 C 84 % 1015,8 hPa 0,0 l/m 0,0 km/h (0 Bft) O-NO 69 0 min 0,000 mm 0,0 UV-I 0 W/m 7,3 C 9,9 C 0,0 km/h (0 Bft) 0,00 %
05.10.2014 06:30 9,8 C 84 % 1015,7 hPa 0,0 l/m 0,0 km/h (0 Bft) S-SO 164 0 min 0,000 mm 0,0 UV-I 0 W/m 7,2 C 9,8 C 0,0 km/h (0 Bft) 0,00 %
05.10.2014 06:45 9,8 C 85 % 1015,9 hPa 0,0 l/m 0,0 km/h (0 Bft) O 95 0 min 0,000 mm 0,0 UV-I 0 W/m 7,4 C 9,8 C 0,0 km/h (0 Bft) 0,00 %
05.10.2014 07:00 9,8 C 85 % 1015,9 hPa 0,0 l/m 0,0 km/h (0 Bft) O-NO 76 0 min 0,000 mm 0,0 UV-I 0 W/m 7,4 C 9,8 C 0,0 km/h (0 Bft) 0,00 %
05.10.2014 07:15 9,7 C 85 % 1015,9 hPa 0,0 l/m 0,0 km/h (0 Bft) O-SO 102 0 min 0,000 mm 0,0 UV-I 0 W/m 7,3 C 9,7 C 0,0 km/h (0 Bft) 0,00 %
05.10.2014 07:30 9,8 C 85 % 1016,0 hPa 0,0 l/m 0,0 km/h (0 Bft) O-SO 107 0 min 0,000 mm 0,0 UV-I 1 W/m 7,4 C 9,8 C 0,0 km/h (0 Bft) 0,00 %
05.10.2014 07:45 9,8 C 85 % 1016,1 hPa 0,0 l/m 0,0 km/h (0 Bft) S 170 0 min 0,000 mm 0,0 UV-I 1 W/m 7,4 C 9,8 C 0,0 km/h (0 Bft) 0,00 %
05.10.2014 08:00 9,8 C 85 % 1016,2 hPa 0,0 l/m 0,0 km/h (0 Bft) O-SO 107 0 min 0,000 mm 0,0 UV-I 6 W/m 7,4 C 9,8 C 0,0 km/h (0 Bft) 0,00 %
05.10.2014 08:15 9,8 C 85 % 1016,3 hPa 0,0 l/m 3,2 km/h (1 Bft) O-SO 114 0 min 0,000 mm 0,0 UV-I 15 W/m 7,4 C 9,8 C 7,9 km/h (2 Bft) 0,00 %
05.10.2014 08:30 9,9 C 85 % 1016,4 hPa 0,0 l/m 0,7 km/h (0 Bft) O 85 0 min 0,000 mm 0,0 UV-I 26 W/m 7,5 C 9,9 C 4,0 km/h (1 Bft) 0,00 %
05.10.2014 08:45 10,0 C 84 % 1016,3 hPa 0,0 l/m 1,8 km/h (1 Bft) SO 140 0 min 0,000 mm 0,0 UV-I 26 W/m 7,4 C 10,0 C 4,0 km/h (1 Bft) 0,00 %
05.10.2014 09:00 10,0 C 84 % 1016,3 hPa 0,0 l/m 1,4 km/h (1 Bft) O 89 0 min 0,000 mm 0,0 UV-I 28 W/m 7,4 C 10,0 C 4,0 km/h (1 Bft) 0,00 %
05.10.2014 09:15 10,1 C 84 % 1016,6 hPa 0,0 l/m 1,4 km/h (1 Bft) O-SO 109 0 min 0,000 mm 0,0 UV-I 40 W/m 7,5 C 10,1 C 4,0 km/h (1 Bft) 0,00 %
05.10.2014 09:30 10,1 C 84 % 1016,6 hPa 0,0 l/m 3,2 km/h (1 Bft) O 98 0 min 0,000 mm 1,0 UV-I 40 W/m 7,5 C 10,1 C 4,0 km/h (1 Bft) 0,00 %
05.10.2014 09:45 10,3 C 84 % 1016,8 hPa 0,0 l/m 0,0 km/h (0 Bft) O-SO 109 0 min 0,000 mm 1,0 UV-I 55 W/m 7,7 C 10,3 C 0,0 km/h (0 Bft) 0,00 %
05.10.2014 10:00 10,5 C 83 % 1016,7 hPa 0,0 l/m 0,7 km/h (0 Bft) O-NO 74 0 min 0,000 mm 1,0 UV-I 82 W/m 7,7 C 10,5 C 4,0 km/h (1 Bft) 0,00 %
05.10.2014 10:15 10,5 C 83 % 1016,8 hPa 0,0 l/m 0,4 km/h (0 Bft) N 355 0 min 0,000 mm 1,0 UV-I 91 W/m 7,7 C 10,5 C 4,0 km/h (1 Bft) 0,00 %
05.10.2014 10:30 10,4 C 83 % 1016,7 hPa 0,0 l/m 2,9 km/h (1 Bft) O-SO 115 0 min 0,000 mm 1,0 UV-I 88 W/m 7,6 C 10,4 C 4,0 km/h (1 Bft) 0,00 %
05.10.2014 10:45 10,7 C 83 % 1016,5 hPa 0,0 l/m 0,0 km/h (0 Bft) O-NO 78 0 min 0,000 mm 1,0 UV-I 105 W/m 7,9 C 10,7 C 0,0 km/h (0 Bft) 0,00 %
05.10.2014 11:00 11,1 C 82 % 1016,4 hPa 0,0 l/m 0,7 km/h (0 Bft) O-SO 105 0 min 0,000 mm 2,0 UV-I 126 W/m 8,1 C 11,1 C 4,0 km/h (1 Bft) 0,00 %
05.10.2014 11:15 11,5 C 80 % 1016,5 hPa 0,0 l/m 1,4 km/h (1 Bft) O 100 0 min 0,000 mm 1,0 UV-I 152 W/m 8,2 C 11,5 C 4,0 km/h (1 Bft) 0,00 %
05.10.2014 11:30 11,7 C 79 % 1016,4 hPa 0,0 l/m 0,7 km/h (0 Bft) O-SO 112 0 min 0,000 mm 1,0 UV-I 136 W/m 8,2 C 11,7 C 4,0 km/h (1 Bft) 0,00 %
05.10.2014 11:45 11,6 C 79 % 1016,5 hPa 0,0 l/m 0,0 km/h (0 Bft) O-SO 106 0 min 0,000 mm 1,0 UV-I 119 W/m 8,1 C 11,6 C 0,0 km/h (0 Bft) 0,00 %
05.10.2014 12:00 11,8 C 79 % 1016,2 hPa 0,0 l/m 0,0 km/h (0 Bft) O-NO 77 0 min 0,000 mm 2,0 UV-I 183 W/m 8,3 C 11,8 C 0,0 km/h (0 Bft) 0,00 %
05.10.2014 12:15 12,7 C 76 % 1015,9 hPa 0,0 l/m 0,0 km/h (0 Bft) N 351 0 min 0,000 mm 2,0 UV-I 255 W/m 8,6 C 12,7 C 0,0 km/h (0 Bft) 0,00 %
05.10.2014 12:30 12,7 C 75 % 1015,9 hPa 0,0 l/m 0,0 km/h (0 Bft) S 173 0 min 0,000 mm 2,0 UV-I 235 W/m 8,4 C 12,7 C 0,0 km/h (0 Bft) 0,00 %
05.10.2014 12:45 13,0 C 75 % 1015,9 hPa 0,0 l/m 0,4 km/h (0 Bft) O-SO 117 0 min 0,000 mm 3,0 UV-I 226 W/m 8,7 C 13,0 C 4,0 km/h (1 Bft) 0,00 %
05.10.2014 13:00 13,4 C 72 % 1015,4 hPa 0,0 l/m 1,4 km/h (1 Bft) O 79 0 min 0,000 mm 3,0 UV-I 254 W/m 8,5 C 13,4 C 4,0 km/h (1 Bft) 0,00 %
05.10.2014 13:15 13,5 C 72 % 1015,4 hPa 0,0 l/m 1,8 km/h (1 Bft) O 94 0 min 0,000 mm 3,0 UV-I 302 W/m 8,6 C 13,5 C 4,0 km/h (1 Bft) 0,00 %
05.10.2014 13:30 13,7 C 71 % 1015,2 hPa 0,0 l/m 0,7 km/h (0 Bft) O-SO 112 0 min 0,000 mm 3,0 UV-I 319 W/m 8,5 C 13,7 C 4,0 km/h (1 Bft) 0,00 %
05.10.2014 13:45 13,8 C 72 % 1015,1 hPa 0,0 l/m 0,0 km/h (0 Bft) S-SO 160 0 min 0,000 mm 3,0 UV-I 282 W/m 8,8 C 13,8 C 0,0 km/h (0 Bft) 0,00 %
05.10.2014 14:00 14,2 C 72 % 1015,1 hPa 0,0 l/m 1,4 km/h (1 Bft) O-SO 105 0 min 0,000 mm 2,0 UV-I 281 W/m 9,2 C 14,2 C 4,0 km/h (1 Bft) 0,00 %
05.10.2014 14:15 13,9 C 72 % 1015,0 hPa 0,0 l/m 0,0 km/h (0 Bft) O 94 0 min 0,000 mm 2,0 UV-I 235 W/m 8,9 C 13,9 C 0,0 km/h (0 Bft) 0,00 %
05.10.2014 14:30 14,0 C 72 % 1015,2 hPa 0,0 l/m 0,7 km/h (0 Bft) N 353 0 min 0,000 mm 2,0 UV-I 214 W/m 9,0 C 14,0 C 4,0 km/h (1 Bft) 0,00 %
05.10.2014 14:45 13,9 C 71 % 1015,0 hPa 0,0 l/m 5,8 km/h (2 Bft) O 92 0 min 0,000 mm 2,0 UV-I 229 W/m 8,7 C 13,9 C 7,9 km/h (2 Bft) 0,00 %
05.10.2014 15:00 14,2 C 71 % 1014,8 hPa 0,0 l/m 0,7 km/h (0 Bft) O-SO 102 0 min 0,000 mm 2,0 UV-I 183 W/m 9,0 C 14,2 C 4,0 km/h (1 Bft) 0,00 %
05.10.2014 15:15 14,2 C 71 % 1014,9 hPa 0,0 l/m 4,0 km/h (1 Bft) O 81 0 min 0,000 mm 2,0 UV-I 162 W/m 9,0 C 14,2 C 7,9 km/h (2 Bft) 0,00 %
05.10.2014 15:30 14,1 C 71 % 1014,9 hPa 0,0 l/m 0,4 km/h (0 Bft) SO 134 0 min 0,000 mm 1,0 UV-I 150 W/m 8,9 C 14,1 C 4,0 km/h (1 Bft) 0,00 %
05.10.2014 15:45 14,0 C 71 % 1014,9 hPa 0,0 l/m 0,0 km/h (0 Bft) S 181 0 min 0,000 mm 1,0 UV-I 129 W/m 8,8 C 14,0 C 0,0 km/h (0 Bft) 0,00 %
05.10.2014 16:00 14,1 C 71 % 1014,8 hPa 0,0 l/m 2,2 km/h (1 Bft) O-SO 111 0 min 0,000 mm 1,0 UV-I 129 W/m 8,9 C 14,1 C 4,0 km/h (1 Bft) 0,00 %
05.10.2014 16:15 14,2 C 70 % 1014,7 hPa 0,0 l/m 0,7 km/h (0 Bft) O 85 0 min 0,000 mm 1,0 UV-I 132 W/m 8,8 C 14,2 C 4,0 km/h (1 Bft) 0,00 %
05.10.2014 16:30 14,1 C 71 % 1014,5 hPa 0,0 l/m 0,4 km/h (0 Bft) S 175 0 min 0,000 mm 1,0 UV-I 150 W/m 8,9 C 14,1 C 4,0 km/h (1 Bft) 0,00 %
05.10.2014 16:45 14,1 C 70 % 1014,5 hPa 0,0 l/m 1,4 km/h (1 Bft) O 92 0 min 0,000 mm 1,0 UV-I 141 W/m 8,7 C 14,1 C 4,0 km/h (1 Bft) 0,00 %
05.10.2014 17:00 14,1 C 70 % 1014,4 hPa 0,0 l/m 0,4 km/h (0 Bft) O 92 0 min 0,000 mm 1,0 UV-I 120 W/m 8,7 C 14,1 C 4,0 km/h (1 Bft) 0,00 %
05.10.2014 17:15 13,8 C 70 % 1014,6 hPa 0,0 l/m 0,0 km/h (0 Bft) NO 56 0 min 0,000 mm 1,0 UV-I 82 W/m 8,4 C 13,8 C 0,0 km/h (0 Bft) 0,00 %
05.10.2014 17:30 13,8 C 71 % 1014,5 hPa 0,0 l/m 2,2 km/h (1 Bft) S 175 0 min 0,000 mm 0,0 UV-I 48 W/m 8,6 C 13,8 C 7,9 km/h (2 Bft) 0,00 %
05.10.2014 17:45 13,6 C 69 % 1014,4 hPa 0,0 l/m 0,0 km/h (0 Bft) W-SW 251 0 min 0,000 mm 0,0 UV-I 34 W/m 8,0 C 13,6 C 0,0 km/h (0 Bft) 0,00 %
05.10.2014 18:00 13,2 C 73 % 1014,6 hPa 0,0 l/m 0,0 km/h (0 Bft) SO 133 0 min 0,000 mm 0,0 UV-I 30 W/m 8,5 C 13,2 C 0,0 km/h (0 Bft) 0,00 %
05.10.2014 18:15 12,3 C 75 % 1014,6 hPa 0,0 l/m 0,0 km/h (0 Bft) SO 136 0 min 0,000 mm 0,0 UV-I 10 W/m 8,0 C 12,3 C 0,0 km/h (0 Bft) 0,00 %
05.10.2014 18:30 11,7 C 79 % 1014,7 hPa 0,0 l/m 0,0 km/h (0 Bft) S 177 0 min 0,000 mm 0,0 UV-I 0 W/m 8,2 C 11,7 C 0,0 km/h (0 Bft) 0,00 %
05.10.2014 18:45 11,2 C 81 % 1014,8 hPa 0,0 l/m 0,0 km/h (0 Bft) S 177 0 min 0,000 mm 0,0 UV-I 0 W/m 8,1 C 11,2 C 0,0 km/h (0 Bft) 0,00 %
05.10.2014 19:00 10,8 C 82 % 1014,9 hPa 0,0 l/m 0,0 km/h (0 Bft) S 177 0 min 0,000 mm 0,0 UV-I 0 W/m 7,9 C 10,8 C 0,0 km/h (0 Bft) 0,00 %
05.10.2014 19:15 10,5 C 83 % 1014,9 hPa 0,0 l/m 0,0 km/h (0 Bft) S 177 0 min 0,000 mm 0,0 UV-I 0 W/m 7,7 C 10,5 C 0,0 km/h (0 Bft) 0,00 %
05.10.2014 19:30 10,2 C 84 % 1015,0 hPa 0,0 l/m 0,0 km/h (0 Bft) S 177 0 min 0,000 mm 0,0 UV-I 0 W/m 7,6 C 10,2 C 0,0 km/h (0 Bft) 0,00 %
05.10.2014 19:45 9,9 C 84 % 1015,0 hPa 0,0 l/m 0,0 km/h (0 Bft) S 177 0 min 0,000 mm 0,0 UV-I 0 W/m 7,3 C 9,9 C 0,0 km/h (0 Bft) 0,00 %
05.10.2014 20:00 9,8 C 85 % 1014,8 hPa 0,0 l/m 0,0 km/h (0 Bft) S 177 0 min 0,000 mm 0,0 UV-I 0 W/m 7,4 C 9,8 C 0,0 km/h (0 Bft) 0,00 %
05.10.2014 20:15 9,9 C 86 % 1014,8 hPa 0,0 l/m 0,0 km/h (0 Bft) S 177 0 min 0,000 mm 0,0 UV-I 0 W/m 7,7 C 9,9 C 0,0 km/h (0 Bft) 0,00 %
05.10.2014 20:30 10,1 C 86 % 1014,8 hPa 0,0 l/m 0,0 km/h (0 Bft) S 177 0 min 0,000 mm 0,0 UV-I 0 W/m 7,9 C 10,1 C 0,0 km/h (0 Bft) 0,00 %
05.10.2014 20:45 10,3 C 85 % 1014,8 hPa 0,0 l/m 0,0 km/h (0 Bft) S 177 0 min 0,000 mm 0,0 UV-I 0 W/m 7,9 C 10,3 C 0,0 km/h (0 Bft) 0,00 %
05.10.2014 21:00 10,4 C 85 % 1014,8 hPa 0,0 l/m 0,0 km/h (0 Bft) S 177 0 min 0,000 mm 0,0 UV-I 0 W/m 8,0 C 10,4 C 0,0 km/h (0 Bft) 0,00 %
05.10.2014 21:15 10,6 C 85 % 1014,7 hPa 0,0 l/m 0,0 km/h (0 Bft) S 177 0 min 0,000 mm 0,0 UV-I 0 W/m 8,2 C 10,6 C 0,0 km/h (0 Bft) 0,00 %
05.10.2014 21:30 10,8 C 86 % 1014,6 hPa 0,0 l/m 0,0 km/h (0 Bft) S 177 0 min 0,000 mm 0,0 UV-I 0 W/m 8,6 C 10,8 C 0,0 km/h (0 Bft) 0,00 %
05.10.2014 21:45 10,9 C 84 % 1014,4 hPa 0,0 l/m 0,0 km/h (0 Bft) O 89 0 min 0,000 mm 0,0 UV-I 0 W/m 8,3 C 10,9 C 0,0 km/h (0 Bft) 0,00 %
05.10.2014 22:00 11,1 C 83 % 1014,4 hPa 0,0 l/m 0,0 km/h (0 Bft) O 96 0 min 0,000 mm 0,0 UV-I 0 W/m 8,3 C 11,1 C 0,0 km/h (0 Bft) 0,00 %
05.10.2014 22:15 11,1 C 82 % 1014,3 hPa 0,0 l/m 0,0 km/h (0 Bft) O-NO 58 0 min 0,000 mm 0,0 UV-I 0 W/m 8,1 C 11,1 C 0,0 km/h (0 Bft) 0,00 %
05.10.2014 22:30 11,1 C 82 % 1014,4 hPa 0,0 l/m 0,7 km/h (0 Bft) NO 41 0 min 0,000 mm 0,0 UV-I 0 W/m 8,1 C 11,1 C 4,0 km/h (1 Bft) 0,00 %
05.10.2014 22:45 11,4 C 80 % 1014,1 hPa 0,0 l/m 0,7 km/h (0 Bft) O 81 0 min 0,000 mm 0,0 UV-I 0 W/m 8,1 C 11,4 C 4,0 km/h (1 Bft) 0,00 %
05.10.2014 23:00 11,6 C 79 % 1014,0 hPa 0,0 l/m 0,4 km/h (0 Bft) SO 128 0 min 0,000 mm 0,0 UV-I 0 W/m 8,1 C 11,6 C 4,0 km/h (1 Bft) 0,00 %
05.10.2014 23:15 11,5 C 80 % 1014,2 hPa 0,0 l/m 0,0 km/h (0 Bft) S-SO 153 0 min 0,000 mm 0,0 UV-I 0 W/m 8,2 C 11,5 C 0,0 km/h (0 Bft) 0,00 %
05.10.2014 23:30 10,9 C 80 % 1014,1 hPa 0,0 l/m 1,4 km/h (1 Bft) O-SO 114 0 min 0,000 mm 0,0 UV-I 0 W/m 7,6 C 10,9 C 4,0 km/h (1 Bft) 0,00 %
05.10.2014 23:45 10,4 C 82 % 1014,1 hPa 0,0 l/m 0,0 km/h (0 Bft) S-SO 151 0 min 0,000 mm 0,0 UV-I 0 W/m 7,5 C 10,4 C 0,0 km/h (0 Bft) 0,00 %
_ Min-Zeit 07:15 17:45 23:00 - 00:00 - - - - - - 06:00 07:15 00:00 00:00
Minimum _ 9,7 C 69 % 1014,0 hPa - 0,0 km/h (0 Bft) - - - - - - 7,2 C 9,7 C 0,0 km/h (0 Bft) 0,00 %
_ Max-Zeit 14:00 20:15 09:45 00:00 14:45 - - 00:00 00:00 12:45 13:30 14:00 14:00 08:15 00:00
Maximum _ 14,2 C 86 % 1016,8 hPa 0,0 l/m 5,8 km/h
O (2 Bft)
- - 0 min 0,000 mm 3,0 UV-I 319 W/m 9,2 C 14,2 C 7,9 km/h
O-SO (2 Bft)
0,00 %
Durchschnitt _ 11,4 C 80 % 1015,4 hPa #0,0 l/m 0,6 km/h (0 Bft) O - #0 min. #0,000 mm 1,6 UV-I 128 W/m 8,0 C 11,4 C 1,7 km/h (1 Bft) 0,00 %